sat.trackr.live / text

‹ back to catalog

STARLINK-5543

NORAD 56341 · 2023-058AA

PAYLOAD ACTIVE UNKNOWN

§ Identity

Operator
Country
US
Launch date
2023-04-27
Launch site
AFWTR
Launch vehicle
Mass (kg)
RCS (m²)

Purposes: comms

External: N2YO · Heavens-Above · Gunter

§ Orbital elements

Epoch: 2026-05-24T23:37:35.011200Z

Period
95.64 min
Inclination
97.4456°
Eccentricity
0.0001977
Mean motion
15.05715444 rev/d
Perigee alt
547.9 km
Apogee alt
550.7 km
Semi-major
6,927.4 km
B*
-8.5850e-4
RAAN
144.9383°
Arg perigee
77.5208°
Mean anomaly
282.6240°
Rev number
16,959

§ Raw data

STARLINK-55431 56341U 23058AA  26144.98443300 -.00012446  00000+0 -85850-3 0  99922 56341  97.4456 144.9383 0001977  77.5208 282.6240 15.05715444169591

JSON: /api/v1/satellites/56341 · /tle

For live sub-satellite position, see the globe view (requires WebGL).

§ Visibility from observer

Set your observer location to see the next 7 days of passes ≥ 10°. The values pass through the URL so the page stays shareable.

No JS? Fill the form by hand. The geolocation button needs JavaScript.